Weather History for Reno, NV

Change the Weather History Date:

Saturday, December 8, 2012

  Actual Average Record
Temperature  
Mean Temperature 40 °F 36 °F  
Max Temperature 52 °F 47 °F 66 °F (1989)
Min Temperature 27 °F 26 °F -12 °F (1972)
Degree Days  
Heating Degree Days 25 29  
Month to date heating degree days 153 226  
Since 1 July heating degree days 952 1329  
Cooling Degree Days 0 0  
Month to date cooling degree days 0 0  
Year to date cooling degree days 1272 839  
Moisture  
Dew Point 23 °F    
Average Humidity 55    
Maximum Humidity 81    
Minimum Humidity 28    
Precipitation  
Precipitation 0.00 in 0.04 in 0.25 in (1894)
Month to date precipitation 0.97 0.25  
Year to date precipitation 4.63 6.62  
Snow  
Snow 0.00 in 0.10 in 0.50 in (1952)
Month to date snowfall 0.0 0.9  
Since 1 July snowfall 0.8 4.4  
Snow Depth 0.00 in    
Sea Level Pressure  
Sea Level Pressure 30.11 in    
Wind  
Wind Speed 1 mph (NE)    
Max Wind Speed 9 mph    
Max Gust Speed 10 mph    
Visibility 10 miles    
Events      
T = Trace of Precipitation, MM = Missing Value Source: NWS Daily Summary

Daily Weather History Graph

Daily Weather History Graph

Search for Another Location

Airport:

Trip Planner

Search our weather history database for the weather conditions in past years. The results will help you decide how hot, cold, wet, or windy it might be!

Date:

Astronomy

Dec. 08, 2012 Rise Set
Actual Time 7:07 AM PST 4:35 PM PST
Civil Twilight 6:37 AM PST 5:05 PM PST
Nautical Twilight 6:03 AM PST 5:38 PM PST
Astronomical Twilight 5:31 AM PST 6:11 PM PST
Moon 1:38 AM PST (12/8) 1:07 PM PST (12/8)
Length of Visible Light 10h 27m
Length of Day
9h 27m
Waning Crescent, 27% of the Moon is Illuminated
Dec 8
Waning Crescent
Dec 13
New
Dec 19
First Quarter
Dec 28
Full
Jan 4
Last Quarter

Hourly Weather History & Observations

Time (PST) Temp. Windchill Dew Point Humidity Pressure Visibility Wind Dir Wind Speed Gust Speed Precip Events Conditions
12:55 AM 33.1 °F - 23.0 °F 66% 30.07 in 10.0 mi Calm Calm - N/A   Clear
1:55 AM 30.9 °F - 24.1 °F 76% 30.08 in 10.0 mi Calm Calm - N/A   Clear
2:55 AM 30.9 °F - 23.0 °F 72% 30.07 in 10.0 mi Calm Calm - N/A   Clear
3:55 AM 30.0 °F - 23.0 °F 75% 30.08 in 10.0 mi Calm Calm - N/A   Clear
4:55 AM 28.0 °F - 23.0 °F 81% 30.09 in 10.0 mi Calm Calm - N/A   Clear
5:55 AM 28.0 °F - 21.9 °F 78% 30.11 in 10.0 mi Calm Calm - N/A   Clear
6:55 AM 27.0 °F - 21.9 °F 81% 30.12 in 10.0 mi Calm Calm - N/A   Clear
7:55 AM 28.9 °F - 23.0 °F 78% 30.14 in 10.0 mi Calm Calm - N/A   Mostly Cloudy
8:55 AM 33.1 °F 30.0 °F 24.1 °F 70% 30.15 in 10.0 mi South 3.5 mph - N/A   Mostly Cloudy
9:55 AM 37.9 °F - 26.1 °F 62% 30.16 in 10.0 mi Calm Calm - N/A   Mostly Cloudy
10:55 AM 44.1 °F - 19.9 °F 38% 30.14 in 10.0 mi Calm Calm - N/A   Mostly Cloudy
11:55 AM 46.9 °F - 19.9 °F 34% 30.12 in 10.0 mi Variable 3.5 mph - N/A   Mostly Cloudy
12:55 PM 48.9 °F - 19.9 °F 32% 30.09 in 10.0 mi East 3.5 mph - N/A   Mostly Cloudy
1:55 PM 51.1 °F - 19.9 °F 29% 30.06 in 10.0 mi SSW 3.5 mph - N/A   Mostly Cloudy
2:55 PM 52.0 °F - 21.0 °F 30% 30.05 in 10.0 mi Calm Calm - N/A   Mostly Cloudy
3:55 PM 51.1 °F - 21.0 °F 31% 30.05 in 10.0 mi Calm Calm - N/A   Scattered Clouds
4:55 PM 46.0 °F 44.8 °F 23.0 °F 40% 30.08 in 10.0 mi NNE 3.5 mph - N/A   Scattered Clouds
5:55 PM 44.1 °F 39.5 °F 26.1 °F 49% 30.11 in 10.0 mi NNE 8.1 mph - N/A   Scattered Clouds
6:55 PM 42.1 °F 40.2 °F 26.1 °F 53% 30.12 in 10.0 mi NE 3.5 mph - N/A   Scattered Clouds
7:55 PM 41.0 °F - 25.0 °F 53% 30.14 in 10.0 mi Calm Calm - N/A   Mostly Cloudy
8:55 PM 39.0 °F - 25.0 °F 57% 30.15 in 10.0 mi Calm Calm - N/A   Mostly Cloudy
9:55 PM 37.9 °F 35.5 °F 26.1 °F 62% 30.17 in 10.0 mi NW 3.5 mph - N/A   Mostly Cloudy
10:55 PM 34.0 °F - 27.0 °F 75% 30.18 in 10.0 mi Calm Calm - N/A   Mostly Cloudy
11:55 PM 37.0 °F - 25.0 °F 62% 30.19 in 10.0 mi Calm Calm - N/A   Mostly Cloudy